Location: Cless�
(46.4157°N, 4.8156°E)
Time: 16:50:36
(UTC+00:00)

Daily predictions for brighter satellites

Satellite Brightness Start Highest point End
(mag) Time Altitude Azimuth Time Altitude Azimuth Time Altitude Azimuth
Gbstr 26 Del rocket 3.7 19:31:07 10° WNW 19:34:37 38° SW 19:38:11 10° SSE
Cosmos 1980 Rocket 4.1 19:33:01 10° NW 19:37:48 29° WSW 19:42:35 10° SSW
Cosmos 2221 4.4 19:36:08 10° NNW 19:40:03 33° W 19:43:57 10° SSW
Cosmos 1812 4.3 19:37:48 10° NNE 19:40:44 20° ENE 19:43:39 10° ESE
Cosmos 1933 3.3 19:37:08 10° N 19:41:10 67° E 19:45:09 10° SSE
Cosmos 1689 Rocket 2.5 19:39:04 10° N 19:41:47 61° WNW 19:44:30 10° SSW
Cosmos 1782 3.4 19:39:15 10° N 19:43:04 41° ENE 19:46:51 10° SSE
Landsat 7 4.4 19:39:08 10° SE 19:43:35 42° ENE 19:48:04 10° N
MOS 1 4.3 19:41:37 10° SSE 19:47:16 82° ENE 19:52:56 10° NNW
SL-27 R/B 3.4 19:44:57 10° SSE 19:48:02 28° ESE 19:51:10 10° NE
Cosmos 2333 Rocket 3.4 19:46:32 10° N 19:51:28 30° NE 19:56:23 10° ESE
BREEZE-M DEB (TANK) 2.4 19:49:28 10° WNW 19:52:11 62° SSW 19:58:29 10° SE
Cosmos 2237 Rocket 4.5 19:50:55 10° NNE 19:52:50 12° NNE 19:54:45 10° NE
Cosmos 2322 Rocket 2.2 19:48:08 10° NNW 19:53:49 87° ENE 19:59:26 10° SSE
Cosmos 2195 Rocket 4.4 19:49:41 10° S 19:55:44 69° E 20:01:49 10° NNE
IRS-1A Rocket 4.3 19:50:55 10° SSE 19:56:25 88° WSW 20:01:59 10° NNW
ARIANE 5 R/B 4.3 19:54:30 10° ESE 19:57:39 19° ENE 20:00:47 10° NNE
BREEZE-M R/B 4.2 19:55:06 10° SSW 19:59:27 20° SSE 20:02:11 10° E
Cosmos 923 Rocket 4.2 19:54:33 10° SSW 19:59:54 83° WNW 20:05:17 10° NNE
OBJECT-B 3.0 19:57:13 10° SSW 19:59:58 26° W 20:02:45 10° NW
BREEZE-M DEB (TANK) 3.8 20:01:31 10° WNW 20:04:42 60° SSW 20:12:58 12° SE
Cosmos 2219 Rocket 3.3 20:00:44 10° N 20:05:40 31° NE 20:10:11 12° ESE
SJ-6B 4.5 20:03:16 10° SSW 20:06:37 31° W 20:10:02 10° NNW
Resurs 1-3 4.0 20:02:39 10° S 20:07:00 63° WSW 20:11:22 10° NNW
Cosmos 2056 Rocket 3.6 20:05:20 10° NNW 20:10:41 73° ENE 20:15:29 12° SSE
ATLAS 5 CENTAUR R/B 3.3 20:06:46 10° NNW 20:11:39 34° NE 20:17:08 11° ESE
Spot 2 Rocket 4.2 20:14:03 14° SE 20:17:58 39° ENE 20:22:41 10° N
SPOT 1/Viking Rocket 3.7 20:14:27 12° SSE 20:19:08 61° ENE 20:24:18 10° N
USA 245 3.9 20:16:53 16° SE 20:19:58 41° ENE 20:23:17 10° N
Cosmos 1408 Rocket 4.2 20:17:00 14° SSE 20:20:17 35° E 20:24:13 10° NNE
Cosmos 1092 Rocket 4.3 20:15:04 10° SSW 20:21:20 75° W 20:27:43 10° N
NOSS 2-1 (E) 3.0 20:18:40 10° SW 20:21:57 78° NW 20:25:22 10° NE
Cosmos 2026 Rocket 4.1 20:18:40 10° S 20:24:59 85° W 20:31:15 10° N
CZ-2C R/B 3.9 20:22:12 10° NNE 20:26:32 46° E 20:30:27 12° S
SL-16 R/B 3.3 20:21:54 10° NW 20:27:12 41° WSW 20:32:27 10° S
IGS 5A 3.8 20:23:33 10° S 20:27:39 64° W 20:31:48 10° NNW
GP-B 3.0 20:24:58 10° N 20:29:26 75° E 20:33:40 11° S
CARTOSAT-1 4.0 20:29:08 19° SE 20:31:52 46° ENE 20:36:01 10° N
Cosmos 1151 Rocket 3.2 20:27:34 10° NNW 20:31:57 75° W 20:36:06 11° S
Cosmos 1680 Rocket 4.2 20:27:12 10° SW 20:32:24 59° WNW 20:37:36 10° NNE
Cosmos 1371 Rocket 4.3 20:27:35 10° NNW 20:32:56 68° WSW 20:37:42 13° S
NOSS 3-1 (C) 4.1 20:26:41 10° NW 20:34:09 81° NE 20:40:55 18° SE
Cosmos 2112 Rocket 4.5 20:28:58 10° SSW 20:34:13 66° WNW 20:39:27 10° NNE
Lacrosse 5 3.0 20:33:37 20° SE 20:34:25 21° ESE 20:38:08 10° ENE
Okean 3 Rocket 3.7 20:32:14 10° S 20:36:45 83° W 20:41:19 10° N
Cosmos 2333 4.2 20:32:26 10° NNW 20:38:03 69° ENE 20:41:51 21° SE
MetOp-B 4.2 20:36:35 13° S 20:41:22 80° WSW 20:46:47 10° NNW
ERS-2 3.2 20:37:59 10° N 20:41:29 45° WNW 20:44:58 10° SW
Meteor 1-10 Rocket 4.2 20:37:26 10° N 20:42:59 66° ENE 20:46:47 21° SSE
COSMOS 2487 2.8 20:45:40 32° SE 20:46:31 38° ESE 20:49:42 10° NE
Cosmos 1515 Rocket 3.5 20:44:51 10° N 20:49:16 71° E 20:51:44 25° SSE
COSMOS 2428 3.1 20:45:01 10° NNW 20:50:36 51° ENE 20:53:52 24° ESE
USA 229 DEB 4.1 20:45:03 10° NW 20:52:20 69° NE 20:57:36 22° SE
USA 229 4.1 20:45:09 10° NW 20:52:26 69° NE 20:57:42 22° SE
COSMOS 2455 2.8 20:46:41 10° SSW 20:52:38 66° ESE 20:58:36 10° NE
Terra 2.4 20:54:30 26° ESE 20:56:40 42° ENE 21:01:09 10° N
Cosmos 292 Rocket 3.9 20:52:17 10° NNW 20:57:03 70° WSW 20:59:58 23° S
Cosmos 1328 Rocket 4.3 20:53:56 10° NNW 20:58:15 52° W 21:01:43 15° SSW
Cosmos 2084 Rocket 4.4 20:56:26 10° NNW 21:00:20 37° NE 21:02:26 23° E
Cosmos 2360 Rocket 2.9 20:55:07 10° NW 21:00:32 49° WSW 21:04:36 17° S
Cosmos 1048 Rocket 4.3 20:59:49 26° SSE 21:02:18 45° ESE 21:07:10 10° NNE
Cosmos 972 Rocket 4.0 21:01:59 22° S 21:05:12 55° ESE 21:10:02 10° NNE
Resurs 01 Rocket 3.5 21:05:58 10° SSW 21:09:42 26° W 21:13:29 10° NW
NOSS 3-1 (A) 4.1 21:05:29 10° NW 21:12:59 85° NE 21:18:16 27° SE
Cosmos 2266 Rocket 3.9 21:09:42 21° S 21:14:01 74° E 21:20:18 10° NNE
Cosmos 1812 4.3 21:13:06 10° NNW 21:16:34 32° W 21:19:06 15° SSW
H-2A R/B 4.5 21:13:23 10° NE 21:17:03 29° E 21:17:03 29° E
Gblst 52 Del rocket 4.4 21:15:29 10° WNW 21:21:29 78° SSW 21:24:54 31° SE
ERS-1 Rocket 2.9 21:20:14 32° S 21:22:36 83° WSW 21:27:39 10° NNW
Cosmos 2228 Rocket 3.1 21:21:15 10° N 21:25:41 69° E 21:26:53 46° SE
Cosmos 2285 Rocket 3.9 21:23:46 10° NNW 21:30:07 88° WSW 21:33:03 34° SSE
Cosmos 2297 Rocket 3.3 21:31:26 26° E 21:31:26 26° E 21:35:57 10° NE
Cosmos 1805 Rocket 3.6 21:31:35 50° SSE 21:32:30 63° E 21:36:53 10° NNE
SPOT 5 2.9 21:31:58 37° SSW 21:33:34 63° W 21:38:03 10° NNW
ARIANE 5 R/B 3.2 21:31:52 30° SSW 21:33:45 51° W 21:38:04 10° NNW
BREEZE-M DEB (TANK) 1.9 21:28:45 10° WNW 21:34:17 86° NNE 21:34:36 70° E
Cosmos 2315 Rocket 4.0 21:28:19 10° N 21:34:42 80° E 21:37:37 35° SSE
NOSS 0 Rocket 4.0 21:29:05 10° NNW 21:35:19 67° ENE 21:37:53 36° SE
Cosmos 2333 Rocket 2.7 21:30:33 10° NW 21:36:01 52° WSW 21:38:33 30° S
Cosmos 883 Rocket 4.5 21:29:52 10° N 21:36:10 86° W 21:39:17 32° S
Cosmos 2237 Rocket 2.8 21:32:57 10° NNW 21:38:26 46° ENE 21:40:34 32° ESE
Cosmos 2322 4.2 21:33:26 10° NW 21:39:00 53° WSW 21:41:29 31° S
Meteor 1-20 Rocket 4.2 21:40:21 41° SSE 21:42:13 63° E 21:47:55 10° NNE
Cosmos 1500 Rocket 4.0 21:40:12 27° SSW 21:42:24 58° WNW 21:46:49 10° N
Cosmos 1452 Rocket 3.9 21:37:21 10° NNW 21:42:29 55° WSW 21:44:29 35° SSW
Cosmos 2227 Rocket 3.4 21:44:49 25° E 21:44:49 25° E 21:48:51 10° NE
Cosmos 2219 Rocket 2.7 21:44:28 10° NW 21:49:51 49° WSW 21:51:54 33° SSW
Sich 1 2.9 21:53:27 68° SSE 21:53:57 82° E 21:58:17 10° N
ATLAS 5 CENTAUR R/B 2.5 21:51:03 10° NW 21:56:37 61° SW 21:58:39 42° S
Cosmos 1515 3.6 21:53:50 10° N 21:57:27 77° NE 21:57:27 77° NE
Cosmos 1331 Rocket 3.9 21:53:10 10° NNW 21:58:25 84° WSW 21:59:36 55° S
Meteor 1-27 Rocket 4.4 21:53:16 10° NNW 21:58:46 50° W 22:01:24 29° SSW
Cosmos 1110 Rocket 4.0 21:54:32 10° NNW 21:59:51 75° WSW 22:01:08 51° S
Cosmos 1633 Rocket 3.2 22:10:51 57° ENE 22:10:51 57° ENE 22:14:51 10° NNE
SL-16 R/B 3.4 22:05:45 10° NNW 22:10:49 32° NE 22:12:56 25° E
NOSS 2-2 (C) 4.4 22:06:51 10° NW 22:12:07 76° NE 22:14:24 43° SE
Cosmos 494 Rocket 4.4 22:11:18 27° SW 22:13:57 58° WNW 22:19:03 10° NNE
Cosmos 1666 4.3 22:15:50 26° ENE 22:15:50 26° ENE 22:18:04 10° NNE
Lacrosse 5 1.8 22:12:21 13° SW 22:16:52 84° NW 22:21:58 10° NE
Cosmos 1666 Rocket 3.4 22:21:09 87° SSW 22:21:14 89° W 22:25:44 10° N
Cosmos 1602 4.2 22:22:55 56° WNW 22:22:55 56° WNW 22:26:35 10° N
SL-08 ROCKET BODY 4.3 22:21:32 53° SSE 22:23:01 78° E 22:29:14 10° N
Cosmos 1340 Rocket 4.4 22:28:39 25° ENE 22:28:39 25° ENE 22:30:53 10° NNE
Cosmos 1244 Rocket 4.5 22:30:48 46° SSW 22:32:47 76° W 22:39:03 10° N
COSMOS 2428 4.0 22:29:50 10° NW 22:34:33 27° WSW 22:35:52 25° SW
Terra 3.4 22:33:24 22° WSW 22:34:34 25° W 22:38:27 10° NW
CZ-4C R/B 3.6 22:29:21 10° NNW 22:36:06 48° NE 22:41:11 22° ESE
COBE Rocket 3.7 22:36:50 77° SW 22:36:58 78° WSW 22:41:45 10° NNW
Timation 2 Rocket 4.1 22:39:27 51° ESE 22:39:36 51° ESE 22:45:33 10° NE
Meteor 2-4 Rocket 3.7 22:33:54 10° N 22:39:51 82° E 22:40:46 64° SSE
CZ-3B R/B 2.4 22:32:57 10° WNW 22:39:48 61° W 22:39:48 61° W
Cosmos 1992 Rocket 4.3 22:37:32 10° NNW 22:42:41 54° ENE 22:43:15 51° E
Meteor 2-9 4.5 22:43:19 71° S 22:43:57 90° W 22:49:29 10° N
Cosmos 2242 Rocket 4.4 22:40:42 10° N 22:44:34 40° ENE 22:44:34 40° ENE
Cosmos 1862 Rocket 3.7 22:41:21 10° NNW 22:45:19 65° WNW 22:45:19 65° WNW
USA 267 3.4 22:41:59 10° ENE 22:48:10 49° SE 22:48:10 49° SE
Meteor 1-18 Rocket 4.5 22:42:39 10° NNW 22:48:20 60° W 22:49:18 52° SW
Cosmos 2219 3.1 22:48:17 68° S 22:49:04 85° ESE 22:54:53 10° NNE
Meteor 1-5 Rocket 4.2 22:49:37 67° SSE 22:50:19 77° E 22:56:16 10° NNE
Spot 4 3.8 22:52:08 76° WSW 22:52:10 76° WSW 22:57:02 10° NNW
Cosmos 1302 Rocket 4.3 22:52:19 10° NNW 22:57:23 52° WSW 22:57:32 51° WSW
Cosmos 1500 4.5 22:59:15 36° WNW 22:59:15 36° WNW 23:02:26 10° N
Cosmos 2082 4.0 23:01:12 51° E 23:01:12 51° E 23:06:29 10° NE
Cosmos 1980 4.3 22:55:46 10° NW 23:01:03 42° WSW 23:01:24 42° WSW
Cosmos 1703 Rocket 4.0 22:57:33 10° N 23:01:20 56° NE 23:01:20 56° NE
Cosmos 909 Rocket 4.2 23:02:47 55° SSW 23:04:27 80° ESE 23:12:18 10° NE
Cosmos 1378 4.4 23:01:29 10° N 23:03:58 38° NNE 23:03:58 38° NNE
Meteor 1-11 Rocket 4.0 23:05:20 51° E 23:05:21 51° E 23:10:41 10° NNE
Okean 1-7 3.5 23:06:01 10° N 23:09:33 57° NNE 23:09:33 57° NNE
Cosmos 2181 Rocket 4.5 23:05:31 10° N 23:11:35 48° ENE 23:12:46 43° ESE
Cosmos 2297 Rocket 2.8 23:13:12 38° WSW 23:15:01 53° WNW 23:20:35 10° NNE
Meteor 2-17 Rocket 4.3 23:15:38 67° SSW 23:16:29 83° W 23:22:35 10° N
Nimbus 7 Rocket 4.4 23:12:31 10° NNE 23:18:28 63° ESE 23:18:52 61° ESE
Cosmos 2237 Rocket 3.3 23:17:22 10° NW 23:22:18 31° WSW 23:22:23 31° WSW
ALOS 2 3.1 23:23:09 54° WNW 23:23:09 54° WNW 23:26:49 10° NNW
USA 234 3.6 23:18:04 21° ESE 23:22:33 64° NNE 23:29:01 10° NW
Cosmos 614 Rocket 4.4 23:23:41 51° E 23:23:41 51° E 23:28:15 10° NNE
Cosmos 1461 3.8 23:27:18 46° NE 23:27:18 46° NE 23:30:27 10° NE
Cosmos 1709 Rocket 3.9 23:26:19 67° S 23:27:15 86° E 23:33:41 10° N
Cosmos 2227 Rocket 2.7 23:26:36 44° WSW 23:28:00 55° WNW 23:33:36 10° NNE
Meteor 1-13 Rocket 4.0 23:22:46 10° NNW 23:28:32 84° W 23:28:50 79° SSW
Cosmos 2263 Rocket 3.2 23:33:28 34° E 23:33:28 34° E 23:38:07 10° NE
Cosmos 2344 4.2 23:34:40 34° ESE 23:35:05 34° ESE 23:41:42 10° NE
Cosmos 1536 3.7 23:40:44 47° N 23:40:44 47° N 23:43:42 10° N
PSLV R/B 4.3 23:38:32 10° NNE 23:42:34 50° ENE 23:42:34 50° ENE
Cosmos 1869 Rocket 4.0 23:47:06 62° N 23:47:06 62° N 23:50:52 10° N
Okean 3 4.1 23:42:27 10° NNW 23:45:46 52° NNW 23:45:46 52° NNW
ASTEX 1 4.4 23:46:47 35° E 23:47:09 35° ENE 23:51:37 10° N
Cosmos 44 3.5 23:46:42 10° NW 23:51:25 70° WNW 23:51:25 70° WNW
Thor Agena Rocket 3.5 23:47:43 10° NNE 23:52:34 73° E 23:52:34 73° E
